Regional Weather Roundup
Issued by NWS

Home | Current Version | Previous Version | Text Only | Print | Product List | Glossary Off
Versions: 1 2 3 4 5 6 7 8 9 10 11 12 13 14 15 16 17 18 19 20 21 22 23 24 25 26 27 28 29 30 31 32 33 34 35 36 37 38 39 40 41 42 43 44 45 46 47 48 49 50

000
ASUS43 KLOT 200809
RWRIL

ILLINOIS REGIONAL WEATHER ROUNDUP
NATIONAL WEATHER SERVICE CHICAGO/ROMEOVILLE IL
200 AM CST SAT JAN 20 2018

NOTE: "FAIR" INDICATES FEW OR NO CLOUDS BELOW 12,000 FEET WITH NO
SIGNIFICANT WEATHER AND/OR OBSTRUCTIONS TO VISIBILITY.

* THESE STATIONS ARE NOT UNDER NWS QUALITY CONTROL. THEY ALSO MAY NOT
  REPORT WEATHER SUCH AS PRECIPITATION OR FOG.

ILZ001-002-007-009-015-016-024-200900-
NORTHWEST ILLINOIS

CITY           SKY/WX    TMP DP  RH WIND       PRES   REMARKS
MOLINE         FAIR      39  29  67 SW10      29.81R WCI  32
STERLING*      FAIR      34  29  82 SW5       29.82R WCI  30
SAVANNA*       FAIR      36  29  75 SW9       29.80R WCI  29
$$

ILZ003-004-008-010-011-017-018-200900-
NORTH CENTRAL ILLINOIS

CITY           SKY/WX    TMP DP  RH WIND       PRES   REMARKS
ROCKFORD       FAIR      38  28  67 SW9       29.81R WCI  31
FREEPORT*      FAIR      34  28  79 SW7       29.80R WCI  28
ROCHELLE*      FAIR      34  29  83 SW10      29.81R WCI  26
DE KALB*       FAIR      34  28  80 SW8       29.81R WCI  27
PERU*          FAIR      36  26  68 SW12      29.84R WCI  28
$$

ILZ005-006-012>014-019>023-200900-
NORTHEAST ILLINOIS

CITY           SKY/WX    TMP DP  RH WIND       PRES   REMARKS
CHICAGO-OHARE  FAIR      37  27  67 SW12      29.80R WCI  29
CHICAGO-MIDWAY MOCLDY    38  28  67 SW13      29.82R WCI  30
AURORA         FAIR      32  27  81 S7        29.82R WCI  26
LANSING*       FAIR      33  29  86 SW12      29.84R WCI  24
JOLIET*        FAIR      37  30  75 SW7       29.85R WCI  31
WAUKEGAN       FAIR      39  28  64 SW7       29.76R WCI  34
DUPAGE AIRPORT FAIR      34  28  79 SW12      29.80R WCI  25
KANKAKEE*      FAIR     N/A N/A N/A SW15G21   29.88R
WHEELING       FAIR      38  28  67 SW9       29.81R WCI  31
MORRIS*        FAIR      35  29  79 SW7       29.84R WCI  29
ROMEOVILLE*    FAIR      35  29  76 SW12      29.83R WCI  27
NORTHERLY ISL    N/A     39  27  62 W9          N/A  WCI  33
$$

LMZ740>746-200900-
SOUTHERN LAKE MICHIGAN

STATION/POSITION SKY/WX   TEMP    WIND        PRES    VSBY  WAVE
                          AIR SEA DIR/SP/G                  HT/PER
                          (F)     (DEG/KT/KT) (MB)    (MI)  (FT/S)
HARRISON CRIB              42     230/ 15/ 20   N/A
BURNHAM HARBOR             38     220/  7/ 16   N/A
CALUMET HARBOR             37     210/ 15/ 19 1009.0R
BURNS HARBOR               38     220/ 18/ 23 1010.5R
MICHIGAN CITY              39     190/ 18/ 21   N/A
$$

ILZ025>027-034>036-040-047-049-050-058-095>099-200900-
WEST-CENTRAL ILLINOIS

CITY           SKY/WX    TMP DP  RH WIND       PRES   REMARKS
QUINCY         CLOUDY    39  28  64 SW13      29.88R WCI  31
GALESBURG*     FAIR      37  31  78 SW12      29.85S WCI  29
MACOMB*        CLOUDY    38  29  71 SW12      29.89R WCI  30
JACKSONVILLE*  MOCLDY    37  26  65 S7        29.92R WCI  32
PITTSFIELD*    CLOUDY    42  30  61 SW13      29.91R
$$

ILZ028>032-037-038-041>044-048-051>054-059>061-200900-
CENTRAL ILLINOIS

CITY           SKY/WX    TMP DP  RH WIND       PRES   REMARKS
PONTIAC        FAIR      36  31  82 SW15      29.87S WCI  26
BLOOMINGTON    FAIR      33  27  78 SW18      29.89R WCI  22
DECATUR        FAIR      34  30  85 SW15      29.94R WCI  24
PEORIA         FAIR      35  27  72 S9        29.88R WCI  28
LACON*         FAIR      37  27  66 SW10      29.85R WCI  30
LINCOLN*       FAIR      33  29  85 S7        29.92R WCI  27
SPRINGFIELD    FAIR      35  27  72 S10       29.93R WCI  27
TAYLORVILLE    FAIR      34  28  79 S18       29.95R WCI  23
$$

ILZ033-039-045-046-055>057-062-063-200900-
EAST-CENTRAL ILLINOIS

CITY           SKY/WX    TMP DP  RH WIND       PRES   REMARKS
CHAMPAIGN      FAIR      32  28  85 SW13      29.93S WCI  22
DANVILLE*      FAIR      31  25  79 SW17      29.91S WCI  20
RANTOUL*       FAIR      35  31  85 SW13G22   29.92R WCI  26
MATTOON        FAIR      32  26  78 S8        29.96R WCI  25
PARIS*         FAIR      32  26  76 SW14G21   29.99R WCI  22
$$

ILZ079-100>102-200900-
SOUTHWEST ILLINOIS

CITY           SKY/WX    TMP DP  RH WIND       PRES   REMARKS
ALTON          CLOUDY    33  28  83 S7        29.98R WCI  27
BELLEVILLE     CLOUDY    29  24  80 SW6       29.98R WCI  23
CAHOKIA*       CLOUDY    39  26  59 S8        29.98R WCI  33
SPARTA*        CLOUDY    33  26  76 S7        30.01R WCI  27
$$

ILZ064>066-069>071-074>076-080>082-084>086-088>090-092>094-200900-
SOUTH-CENTRAL ILLINOIS

CITY           SKY/WX    TMP DP  RH WIND       PRES   REMARKS
CARBONDALE     FAIR      36  24  62 SW13      30.04S WCI  27
CAIRO*         FAIR      37  23  59 S12       30.10R WCI  29
EFFINGHAM*     FAIR      35  27  75 S7        30.01R WCI  29
MARION         FAIR      34  22  61 S10       30.06R WCI  26
MT. VERNON     FAIR      32  26  78 S10       30.03R WCI  24
CENTRALIA*     CLOUDY    35  28  76 S12       30.00R WCI  27
SALEM*         FAIR      35  27  72 S9        30.01R WCI  28
METROPOLIS*    CLOUDY    36  20  52 SW6       30.11R WCI  31
$$

ILZ067-068-072-073-078-083-087-091-200900-
SOUTHEAST ILLINOIS

CITY           SKY/WX    TMP DP  RH WIND       PRES   REMARKS
LAWRENCEVILLE  FAIR      31  21  66 S12       30.04R WCI  22
FLORA*         FAIR      35  26  71 S12       30.02R WCI  26
FAIRFIELD*     FAIR      33  24  69 S6        30.03R WCI  27
HARRISBURG*    FAIR      35  22  59 SW8       30.07R WCI  28
ROBINSON*      FAIR      32  22  67 S9        30.03R WCI  24
CARMI*         FAIR      34  22  62 S10       30.05S WCI  26
$$

ABBREVIATIONS USED IN REMARKS
   TC - TEMPERATURE IN CELSIUS
  WCI - WIND CHILL INDEX
   HX - HEAT INDEX
  VSB - VISIBILITY
$$





USA.gov is the U.S. government's official web portal to all federal, state and local government web resources and services.